Date String (YYYY-MM-DD hh:mm:ss) UTC,Instrument flags,absolute air pressure of the measurement (hPa),sample flow rate (lpm),inlet stack bypass flow (lpm),air temperature of the measurement (°C),ambient temperature measured by the external sensor (°C),aerosol sample conditioner tube jacket temperature (°C),OPC LED temperature (°C),internal box temperature (°C),relative humidity of the measurement (%),span deviation,mass concentration of particles derived from Lorenz-Mie calculation of OPC scattering (μg/m³),mass concentration of particles derived from Lorenz-Mie calculation of OPC scattering (μg/m³),mass concentration of particles derived from Lorenz-Mie calculation of OPC scattering (μg/m³)
DateTimeUTC,F1_M11,P_M11,Q1_M11,Q2_M11,T1_M11,T2_M11,T3_M11,T4_M11,T5_M11,U1_M11,ZSPAN_M11,X0_M11,X2_M11,X1_M11
2023-06-28 05:00:00,SystemResetWarning,0826.6,5.00,000.00,029.4,027.2,000.0,038.0,030.9,9.0,0000.0,0006.11,0002.56,0001.74
2023-06-28 05:01:00,SystemResetWarning,0826.6,5.00,000.00,029.4,027.4,000.0,038.0,030.9,8.8,0000.0,0006.14,0002.58,0001.75
2023-06-28 05:02:00,SystemResetWarning,0826.6,5.00,000.00,029.5,027.6,000.0,038.0,031.0,8.7,0000.0,0007.34,0002.53,0001.75
2023-06-28 05:03:00,SystemResetWarning,0826.6,5.00,000.00,029.5,027.8,000.0,038.0,031.0,9.0,0000.0,0007.90,0002.55,0001.74
2023-06-28 05:04:00,SystemResetWarning,0826.6,5.00,000.00,029.5,027.9,000.0,038.0,031.1,8.9,0000.0,0007.92,0002.56,0001.75
2023-06-28 05:05:00,SystemResetWarning,0826.7,5.00,000.00,029.6,028.1,000.0,038.0,031.1,8.9,0000.0,0007.79,0002.55,0001.76
2023-06-28 05:06:00,SystemResetWarning,0826.7,5.00,000.00,029.6,028.2,000.0,038.0,031.2,9.0,0000.0,0007.65,0002.56,0001.78
2023-06-28 05:07:00,SystemResetWarning,0826.8,5.01,000.00,029.6,028.1,000.0,038.1,031.2,8.9,0000.0,0007.82,0002.64,0001.78
2023-06-28 05:08:00,SystemResetWarning,0826.7,4.98,000.00,029.7,026.1,000.0,038.0,031.3,7.9,0000.0,0007.75,0002.65,0001.78
2023-06-28 05:09:00,SystemResetWarning,0826.8,5.01,000.00,029.6,024.9,000.0,037.9,031.2,8.5,0000.0,0007.74,0002.67,0001.80
2023-06-28 05:10:00,SystemResetWarning,0826.8,5.01,000.00,029.5,025.1,000.0,037.9,030.9,8.9,0000.0,0008.06,0002.78,0001.81
2023-06-28 05:11:00,SystemResetWarning,0826.8,4.99,000.00,029.4,025.5,000.0,037.9,030.7,8.9,0000.0,0008.04,0002.77,0001.81
2023-06-28 05:12:00,SystemResetWarning,0826.8,5.00,000.00,029.4,025.9,000.0,037.9,030.7,9.0,0000.0,0008.03,0002.77,0001.82
2023-06-28 05:13:00,SystemResetWarning,0826.8,5.01,000.00,029.4,026.4,000.0,037.9,030.8,9.1,0000.0,0007.17,0002.79,0001.83
2023-06-28 05:14:00,SystemResetWarning,0826.8,5.00,000.00,029.4,026.7,000.0,037.9,030.8,9.1,0000.0,0006.25,0002.75,0001.83
2023-06-28 05:15:00,SystemResetWarning,0826.9,4.99,000.00,029.4,027.0,000.0,038.0,030.9,9.2,0000.0,0006.10,0002.73,0001.80
2023-06-28 05:16:00,SystemResetWarning,0826.9,5.00,000.00,029.4,027.3,000.0,038.0,030.9,9.3,0000.0,0006.08,0002.75,0001.79
2023-06-28 05:17:00,SystemResetWarning,0827.0,5.00,000.00,029.5,027.5,000.0,038.0,031.0,10.4,0000.0,0005.96,0002.72,0001.78
2023-06-28 05:18:00,SystemResetWarning,0826.9,5.01,000.00,029.5,027.7,000.0,038.0,031.0,10.7,0000.0,0005.36,0002.62,0001.78
2023-06-28 05:19:00,SystemResetWarning,0827.0,5.01,000.00,029.5,027.9,000.0,038.0,031.1,10.3,0000.0,0004.89,0002.58,0001.78
2023-06-28 05:20:00,SystemResetWarning,0827.0,5.00,000.00,029.6,028.1,000.0,038.0,031.2,10.1,0000.0,0004.95,0002.59,0001.78
2023-06-28 05:21:00,SystemResetWarning,0827.0,4.99,000.00,029.6,028.2,000.0,038.0,031.2,10.3,0000.0,0005.12,0002.54,0001.77
2023-06-28 05:22:00,SystemResetWarning,0827.1,5.00,000.00,029.6,028.3,000.0,038.1,031.3,10.3,0000.0,0005.23,0002.53,0001.77
2023-06-28 05:23:00,SystemResetWarning,0827.1,4.99,000.00,029.7,028.4,000.0,038.1,031.3,10.6,0000.0,0005.59,0002.56,0001.77
2023-06-28 05:24:00,SystemResetWarning,0827.1,4.99,000.00,029.7,027.6,000.0,038.1,031.3,10.6,0000.0,0005.53,0002.53,0001.76
2023-06-28 05:25:00,SystemResetWarning,0827.1,5.01,000.00,029.7,025.4,000.0,038.0,031.3,11.8,0000.0,0005.60,0002.57,0001.77
2023-06-28 05:26:00,SystemResetWarning,0827.1,5.01,000.00,029.7,025.1,000.0,038.0,031.2,14.6,0000.0,0006.39,0002.64,0001.79
2023-06-28 05:27:00,SystemResetWarning,0827.1,5.01,000.00,029.6,025.4,000.0,038.0,030.9,15.2,0000.0,0006.90,0002.68,0001.81
2023-06-28 05:28:00,SystemResetWarning,0827.1,5.01,000.00,029.5,025.8,000.0,038.0,030.9,15.4,0000.0,0007.73,0002.71,0001.83
2023-06-28 05:29:00,SystemResetWarning,0827.2,5.00,000.00,029.5,026.2,000.0,038.0,030.9,15.3,0000.0,0008.39,0002.78,0001.82
2023-06-28 05:30:00,SystemResetWarning,0827.1,4.99,000.00,029.5,026.6,000.0,038.0,030.9,15.2,0000.0,0008.96,0002.87,0001.82
2023-06-28 05:31:00,SystemResetWarning,0827.2,5.00,000.00,029.5,027.0,000.0,038.0,031.0,15.5,0000.0,0010.28,0002.98,0001.87
2023-06-28 05:32:00,SystemResetWarning,0827.1,5.00,000.00,029.5,027.3,000.0,038.0,031.0,15.9,0000.0,0010.71,0003.14,0002.02
2023-06-28 05:33:00,SystemResetWarning,0827.2,5.00,000.00,029.5,027.5,000.0,038.0,031.0,16.5,0000.0,0011.19,0003.30,0002.20
2023-06-28 05:34:00,SystemResetWarning,0827.2,5.00,000.00,029.6,027.7,000.0,038.0,031.1,17.6,0000.0,0012.12,0003.45,0002.36
2023-06-28 05:35:00,SystemResetWarning,0827.3,5.00,000.00,029.6,027.9,000.0,038.1,031.2,18.6,0000.0,0012.92,0003.64,0002.54
2023-06-28 05:36:00,SystemResetWarning,0827.4,5.01,000.00,029.6,028.1,000.0,038.1,031.2,19.0,0000.0,0013.35,0003.76,0002.69
2023-06-28 05:37:00,SystemResetWarning,0827.4,4.99,000.00,029.7,028.2,000.0,038.1,031.3,19.8,0000.0,0013.86,0003.86,0002.83
2023-06-28 05:38:00,SystemResetWarning,0827.4,5.00,000.00,029.7,028.3,000.0,038.1,031.3,20.8,0000.0,0015.03,0004.00,0002.99
2023-06-28 05:39:00,SystemResetWarning,0827.4,5.00,000.00,029.7,028.4,000.0,038.2,031.3,21.0,0000.0,0014.70,0004.08,0003.12
2023-06-28 05:40:00,SystemResetWarning,0827.4,4.99,000.00,029.8,028.4,000.0,038.2,031.4,21.8,0000.0,0015.11,0004.22,0003.24
2023-06-28 05:41:00,SystemResetWarning,0827.4,4.99,000.00,029.8,026.5,000.0,038.1,031.3,22.1,0000.0,0015.17,0004.37,0003.37
2023-06-28 05:42:00,SystemResetWarning,0827.4,5.01,000.00,029.8,025.1,000.0,038.1,031.3,22.3,0000.0,0014.40,0004.53,0003.50
2023-06-28 05:43:00,SystemResetWarning,0827.4,5.01,000.00,029.7,025.3,000.0,038.0,031.1,23.7,0000.0,0014.57,0004.65,0003.59
2023-06-28 05:44:00,SystemResetWarning,0827.4,4.99,000.00,029.6,025.6,000.0,038.1,030.9,24.6,0000.0,0014.53,0004.76,0003.68
2023-06-28 05:45:00,SystemResetWarning,0827.4,5.00,000.00,029.6,026.0,000.0,038.1,030.9,24.8,0000.0,0013.82,0004.86,0003.77
2023-06-28 05:46:00,SystemResetWarning,0827.4,4.99,000.00,029.6,026.5,000.0,038.1,030.9,25.0,0000.0,0014.27,0004.94,0003.87
2023-06-28 05:47:00,SystemResetWarning,0827.3,4.98,000.00,029.5,026.8,000.0,038.1,031.0,25.1,0000.0,0016.23,0005.10,0004.00
2023-06-28 05:48:00,SystemResetWarning,0827.4,5.00,000.00,029.6,027.2,000.0,038.1,031.0,25.0,0000.0,0016.72,0005.25,0004.14
2023-06-28 05:49:00,SystemResetWarning,0827.3,5.02,000.00,029.6,027.4,000.0,038.1,031.1,24.8,0000.0,0016.32,0005.38,0004.28
2023-06-28 05:50:00,SystemResetWarning,0827.4,5.00,000.00,029.6,027.7,000.0,038.1,031.1,24.6,0000.0,0017.75,0005.67,0004.44
2023-06-28 05:51:00,SystemResetWarning,0827.4,4.99,000.00,029.6,027.8,000.0,038.1,031.2,24.0,0000.0,0018.16,0005.95,0004.59
2023-06-28 05:52:00,SystemResetWarning,0827.4,5.00,000.00,029.7,028.0,000.0,038.1,031.2,24.1,0000.0,0018.70,0006.15,0004.72
2023-06-28 05:53:00,SystemResetWarning,0827.6,5.00,000.00,029.7,028.2,000.0,038.2,031.3,24.2,0000.0,0018.84,0006.30,0004.83
2023-06-28 05:54:00,SystemResetWarning,0827.6,5.00,000.00,029.7,028.3,000.0,038.2,031.3,23.7,0000.0,0019.37,0006.41,0004.91
2023-06-28 05:55:00,SystemResetWarning,0827.6,5.00,000.00,029.8,028.4,000.0,038.2,031.4,23.0,0000.0,0020.84,0006.50,0004.98
2023-06-28 05:56:00,SystemResetWarning,0827.7,5.00,000.00,029.8,028.5,000.0,038.2,031.4,22.8,0000.0,0021.42,0006.56,0005.05
2023-06-28 05:57:00,SystemResetWarning,0827.7,5.00,000.00,029.8,028.5,000.0,038.3,031.4,22.8,0000.0,0021.40,0006.61,0005.12
2023-06-28 05:58:00,SystemResetWarning,0827.7,5.00,000.00,029.9,028.6,000.0,038.3,031.5,23.0,0000.0,0019.51,0006.63,0005.15
2023-06-28 05:59:00,SystemResetWarning,0827.9,4.99,000.00,029.9,027.0,000.0,038.2,031.5,23.1,0000.0,0018.87,0006.65,0005.17
